Change the Weather History Date:

Thursday, November 29, 2012

  Actual Average (KGUC) Record (KGUC)
Temperature  
Mean Temperature 48 °F -  
Max Temperature 56 °F 31 °F 51 °F (2012)
Min Temperature 39 °F 7 °F -2 °F (2003)
Degree Days  
Heating Degree Days 18    
Moisture  
Dew Point 19 °F    
Average Humidity 33    
Maximum Humidity 45    
Minimum Humidity 18    
Precipitation  
Precipitation 0.00 in - - ()
Sea Level Pressure  
Sea Level Pressure 30.23 in    
Wind  
Wind Speed 13 mph (SW)    
Max Wind Speed 22 mph    
Max Gust Speed 33 mph    
Visibility 10 miles    
Events      
Averages and records for this station are not official NWS values.
T = Trace of Precipitation, MM = Missing Value Source: NWS Daily Summary

Daily Weather History Graph

Daily Weather History Graph

Search for Another Location

Airport or City:

Trip Planner

Search our weather history database for the weather conditions in past years. The results will help you decide how hot, cold, wet, or windy it might be!

Date:

Astronomy

Nov. 29, 2012 Rise Set
Actual Time 7:01 AM MST 4:43 PM MST
Civil Twilight 6:32 AM MST 5:13 PM MST
Nautical Twilight 5:59 AM MST 5:45 PM MST
Astronomical Twilight 5:27 AM MST 6:17 PM MST
Moon 5:49 PM MST (11/29) 7:50 AM MST (11/29)
Length of Visible Light 10h 40m
Length of Day
9h 42m
Full, 99% of the Moon is Illuminated
Nov 29
Full
Dec 6
Last Quarter
Dec 13
New
Dec 19
First Quarter
Dec 28
Full

Hourly Weather History & Observations

Time (MST) Temp. Windchill Dew Point Humidity Pressure Visibility Wind Dir Wind Speed Gust Speed Precip Events Conditions
12:15 AM 42.8 °F 38.6 °F 13.8 °F 31% 30.27 in 10.0 mi SW 6.9 mph - N/A   Clear
12:35 AM 44.1 °F 39.5 °F 17.1 °F 34% 30.27 in 10.0 mi West 8.1 mph 17.3 mph N/A   Clear
12:55 AM 39.0 °F 35.7 °F 10.4 °F 31% 30.25 in 10.0 mi North 4.6 mph - N/A   Clear
1:15 AM 45.7 °F 39.5 °F 20.3 °F 37% 30.24 in 10.0 mi WSW 13.8 mph 24.2 mph N/A   Clear
1:35 AM 45.7 °F 39.5 °F 20.3 °F 37% 30.24 in 10.0 mi WSW 13.8 mph 18.4 mph N/A   Clear
1:55 AM 40.8 °F 34.1 °F 19.8 °F 43% 30.24 in 10.0 mi West 11.5 mph 16.1 mph N/A   Clear
2:15 AM 46.8 °F - 21.9 °F 37% 30.24 in 10.0 mi WSW 16.1 mph 24.2 mph N/A   Clear
2:35 AM 46.2 °F 40.8 °F 22.1 °F 39% 30.24 in 10.0 mi WSW 11.5 mph 24.2 mph N/A   Clear
2:55 AM 45.9 °F 38.3 °F 22.3 °F 39% 30.23 in 10.0 mi WSW 19.6 mph 25.3 mph N/A   Clear
3:15 AM 45.7 °F 39.1 °F 21.9 °F 39% 30.24 in 10.0 mi WSW 15.0 mph 24.2 mph N/A   Clear
3:35 AM 45.5 °F 38.6 °F 22.1 °F 40% 30.23 in 10.0 mi WSW 16.1 mph 21.9 mph N/A   Clear
3:55 AM 45.5 °F 38.6 °F 22.8 °F 41% 30.22 in 10.0 mi WSW 16.1 mph 21.9 mph N/A   Clear
4:15 AM 43.3 °F 36.5 °F 21.4 °F 42% 30.22 in 10.0 mi SW 13.8 mph - N/A   Clear
4:35 AM 44.6 °F 37.8 °F 20.5 °F 38% 30.21 in 10.0 mi SSW 15.0 mph 20.7 mph N/A   Clear
4:55 AM 44.6 °F 37.8 °F 22.1 °F 41% 30.21 in 10.0 mi WSW 15.0 mph 24.2 mph N/A   Clear
5:15 AM 45.3 °F 38.4 °F 22.3 °F 40% 30.21 in 10.0 mi SW 16.1 mph 21.9 mph N/A   Clear
5:35 AM 43.7 °F 38.6 °F 20.1 °F 39% 30.22 in 10.0 mi WSW 9.2 mph - N/A   Clear
5:55 AM 42.1 °F 37.7 °F 21.4 °F 44% 30.22 in 10.0 mi West 6.9 mph - N/A   Clear
6:15 AM 42.4 °F 34.4 °F 18.7 °F 39% 30.22 in 10.0 mi SSW 17.3 mph 24.2 mph N/A   Clear
6:35 AM 42.4 °F 35.3 °F 19.2 °F 39% 30.23 in 10.0 mi West 13.8 mph 19.6 mph N/A   Clear
6:55 AM 42.1 °F 35.7 °F 20.3 °F 42% 30.23 in 10.0 mi WSW 11.5 mph 19.6 mph N/A   Clear
7:15 AM 44.2 °F 38.0 °F 20.5 °F 39% 30.23 in 10.0 mi SW 12.7 mph 24.2 mph N/A   Clear
7:35 AM 44.8 °F 37.4 °F 20.1 °F 37% 30.22 in 10.0 mi SSW 17.3 mph 24.2 mph N/A   Clear
7:55 AM 46.0 °F 39.0 °F 20.7 °F 37% 30.22 in 10.0 mi SSW 17.3 mph 25.3 mph N/A   Clear
8:15 AM 46.6 °F - 20.8 °F 36% 30.23 in 10.0 mi SW 16.1 mph 23.0 mph N/A   Clear
8:55 AM 49.1 °F - 21.2 °F 33% 30.23 in 10.0 mi SSW 19.6 mph 28.8 mph N/A   Clear
9:35 AM 50.9 °F - 19.2 °F 29% 30.22 in 10.0 mi SW 18.4 mph 29.9 mph N/A   Clear
9:55 AM 52.0 °F - 19.8 °F 28% 30.23 in 10.0 mi WSW 21.9 mph 29.9 mph N/A   Clear
10:15 AM 53.1 °F - 19.6 °F 27% 30.23 in 10.0 mi SW 18.4 mph 26.5 mph N/A   Clear
10:35 AM 53.8 °F - 19.9 °F 27% 30.22 in 10.0 mi WSW 18.4 mph 33.4 mph N/A   Clear
10:55 AM 54.1 °F - 20.3 °F 27% 30.22 in 10.0 mi SW 18.4 mph 31.1 mph N/A   Clear
11:15 AM 54.5 °F - 20.5 °F 27% 30.21 in 10.0 mi SW 18.4 mph 33.4 mph N/A   Clear
11:35 AM 55.4 °F - 20.5 °F 26% 30.21 in 10.0 mi SW 18.4 mph 28.8 mph N/A   Clear
11:55 AM 54.9 °F - 20.1 °F 26% 30.20 in 10.0 mi SW 17.3 mph 25.3 mph N/A   Clear
12:15 PM 55.8 °F - 19.8 °F 25% 30.20 in 10.0 mi WSW 20.7 mph 28.8 mph N/A   Clear
12:55 PM 56.3 °F - 19.4 °F 24% 30.20 in 10.0 mi SW 15.0 mph 24.2 mph N/A   Clear
1:15 PM 55.4 °F - 17.8 °F 23% 30.19 in 10.0 mi SW 17.3 mph 29.9 mph N/A   Clear
1:35 PM 54.9 °F - 18.1 °F 24% 30.19 in 10.0 mi SSW 20.7 mph 24.2 mph N/A   Clear
1:55 PM 55.4 °F - 17.4 °F 23% 30.19 in 10.0 mi SW 16.1 mph 24.2 mph N/A   Clear
2:15 PM 56.3 °F - 16.9 °F 21% 30.18 in 10.0 mi SW 17.3 mph 26.5 mph N/A   Clear
2:35 PM 56.3 °F - 16.0 °F 21% 30.18 in 10.0 mi SW 17.3 mph 24.2 mph N/A   Clear
2:55 PM 56.7 °F - 13.5 °F 18% 30.19 in 10.0 mi SW 19.6 mph 27.6 mph N/A   Clear
3:15 PM 55.8 °F - 13.5 °F 19% 30.19 in 10.0 mi SW 17.3 mph 24.2 mph N/A   Clear
3:35 PM 54.7 °F - 16.0 °F 22% 30.19 in 10.0 mi SW 16.1 mph 26.5 mph N/A   Clear
3:55 PM 52.7 °F - 17.2 °F 25% 30.20 in 10.0 mi SW 15.0 mph 26.5 mph N/A   Clear
4:15 PM 51.4 °F - 17.2 °F 26% 30.20 in 10.0 mi SSW 16.1 mph 26.5 mph N/A   Clear
4:35 PM 50.0 °F - 17.6 °F 28% 30.21 in 10.0 mi SSW 18.4 mph 26.5 mph N/A   Clear
4:55 PM 49.3 °F - 17.6 °F 28% 30.22 in 10.0 mi SSW 18.4 mph 26.5 mph N/A   Clear
5:15 PM 48.9 °F - 18.0 °F 29% 30.22 in 10.0 mi SW 17.3 mph 25.3 mph N/A   Clear
5:35 PM 48.2 °F - 18.5 °F 31% 30.23 in 10.0 mi SSW 16.1 mph 23.0 mph N/A   Clear
5:55 PM 47.8 °F - 18.7 °F 31% 30.23 in 10.0 mi SSW 18.4 mph 23.0 mph N/A   Clear
6:15 PM 48.2 °F - 18.9 °F 31% 30.23 in 10.0 mi SSW 17.3 mph 24.2 mph N/A   Clear
6:35 PM 47.7 °F - 18.5 °F 31% 30.24 in 10.0 mi SSW 13.8 mph 25.3 mph N/A   Clear
6:55 PM 47.3 °F - 18.9 °F 32% 30.24 in 10.0 mi SSW 16.1 mph 21.9 mph N/A   Clear
7:15 PM 47.3 °F - 19.0 °F 33% 30.25 in 10.0 mi SSW 15.0 mph 19.6 mph N/A   Clear
7:35 PM 47.3 °F - 19.2 °F 33% 30.25 in 10.0 mi SSW 13.8 mph 21.9 mph N/A   Clear
7:55 PM 47.3 °F - 19.4 °F 33% 30.25 in 10.0 mi SSW 13.8 mph 21.9 mph N/A   Clear
8:15 PM 46.9 °F - 19.4 °F 34% 30.25 in 10.0 mi SSW 15.0 mph 18.4 mph N/A   Clear
8:35 PM 46.2 °F 40.5 °F 19.4 °F 34% 30.25 in 10.0 mi SSW 12.7 mph 17.3 mph N/A   Clear
8:55 PM 45.1 °F 38.8 °F 19.6 °F 36% 30.25 in 10.0 mi SW 13.8 mph 17.3 mph N/A   Clear
9:15 PM 44.2 °F 38.8 °F 20.3 °F 39% 30.26 in 10.0 mi SSW 10.4 mph - N/A   Clear
9:55 PM 43.7 °F 37.7 °F 20.8 °F 40% 30.27 in 10.0 mi SSW 11.5 mph 17.3 mph N/A   Clear
10:15 PM 43.2 °F 38.4 °F 21.4 °F 42% 30.28 in 10.0 mi SSW 8.1 mph - N/A   Clear
10:35 PM 39.6 °F 36.3 °F 19.2 °F 44% 30.28 in 10.0 mi West 4.6 mph - N/A   Clear
10:55 PM 40.8 °F 38.8 °F 20.7 °F 45% 30.27 in 10.0 mi West 3.5 mph - N/A   Clear
11:15 PM 42.8 °F 39.3 °F 20.5 °F 41% 30.28 in 10.0 mi SW 5.8 mph 16.1 mph N/A   Clear
11:35 PM 42.4 °F 36.5 °F 19.2 °F 39% 30.27 in 10.0 mi SSW 10.4 mph 17.3 mph N/A   Clear
11:55 PM 43.0 °F 37.2 °F 19.8 °F 40% 30.27 in 10.0 mi SW 10.4 mph 20.7 mph N/A   Clear